User: anonymous   Login
Location: Bakov nad Jizerou
(50.4784°N, 14.9394°E)
Time: 22:06:49
(UTC+00:00)
Language:

GEOS 3 Rocket - Orbit

View from above orbital plane
View from above orbital plane
View from above satellite
View from above satellite

Ground track
Ground track

The orbit data is extracted from the following two-line orbital elements,

1  7735U 75027B   21266.56135655 -.00000126  00000-0  22453-4 0  9996
2  7735 114.9727 188.0216 0035849 183.2806 176.8044 14.24649584412350
Epoch (UTC): 23 September 2021 13:28:21
Eccentricity: 0.0035849
inclination: 114.9727°
perigee height: 784 km
apogee height: 835 km
right ascension of ascending node: 188.0216°
argument of perigee: 183.2806°
revolutions per day: 14.24649584
mean anomaly at epoch: 176.8044°
orbit number at epoch: 41235

The dashed part of the orbit path shows where the satellite is in the earth's shadow,  

DLR